Theta_e
305 305 305 305 305 305 306 306 305 305 304 305 309 310 310 310 307 315 318 317 317 315 312 316 317 323 324 324 324 324 324 325 328 331 335 336 337 336 335 336 341 338 338 347 355
305 305 305 305 305 305 306 306 305 305 305 305 308 310 310 309 316 319 318 316 313 311 314 319 319 323 325 325 325 325 324 323 325 327 330 333 336 335 334 335 337 335 337 345 354
305 305 305 306 306 305 306 307 306 306 306 305 306 310 309 309 322 320 315 313 312 309 314 319 319 323 324 324 324 325 324 324 324 324 326 329 331 334 334 333 332 333 339 347 350
305 305 306 307 307 306 306 307 308 308 307 306 306 310 308 319 320 322 314 312 309 315 318 320 320 321 323 324 324 324 324 324 324 325 325 326 328 331 333 333 332 332 334 345 350
305 305 308 308 307 306 307 310 312 312 312 308 306 310 312 322 319 316 312 314 314 314 317 319 320 320 322 323 323 323 323 324 324 324 324 325 325 327 330 330 332 331 332 344 348
305 306 308 308 308 307 309 312 313 312 313 313 307 309 318 320 315 317 319 324 320 317 318 318 319 320 321 321 321 322 323 323 323 323 323 324 324 325 327 329 331 330 331 335 344
305 306 308 309 310 309 311 312 311 312 313 313 308 312 321 319 315 317 316 316 319 322 321 318 317 319 321 321 322 322 322 322 322 322 322 322 322 322 324 327 330 333 331 332 339
305 306 308 309 309 310 311 311 311 311 312 310 309 319 323 318 317 317 317 316 321 323 322 318 317 319 321 321 321 321 322 322 322 322 322 321 321 322 323 324 327 328 332 333 338
305 306 308 308 309 308 309 311 310 310 309 309 317 323 323 316 319 318 318 319 319 317 316 316 318 319 320 320 321 322 321 321 321 322 322 322 322 322 323 323 324 327 329 333 334
305 306 309 308 308 308 310 310 314 317 317 319 320 321 320 321 318 317 318 319 319 319 317 316 317 318 319 321 320 319 321 321 321 322 322 322 322 322 323 323 323 324 327 329 331
305 306 307 308 309 309 311 318 321 325 321 319 319 319 319 318 317 318 319 319 320 319 320 318 318 320 321 321 321 321 321 321 322 322 322 322 323 322 323 323 324 324 325 327 330
305 306 306 308 309 310 312 315 313 312 315 317 318 318 317 317 318 319 319 320 321 320 320 321 321 320 320 320 321 321 321 321 321 321 321 322 322 322 323 323 324 324 325 325 328
304 305 306 308 309 312 314 313 312 312 317 319 319 320 319 318 319 319 320 320 321 321 321 322 322 321 320 320 319 319 319 320 320 320 321 321 321 322 322 323 323 324 324 325 326
304 305 306 308 312 314 315 312 312 313 318 320 319 320 319 320 319 319 319 320 321 321 321 321 321 320 319 319 320 320 319 319 319 320 321 322 321 322 322 323 323 324 324 324 325
304 305 308 307 313 314 311 311 313 316 324 319 319 318 318 320 320 320 318 319 320 320 321 320 320 321 320 319 319 319 319 319 320 321 321 320 321 321 323 323 324 324 324 324 325
304 305 307 313 314 313 310 312 315 322 325 318 317 318 319 319 319 319 319 319 321 321 321 321 321 320 320 320 319 319 319 319 320 320 321 321 321 321 322 323 324 324 324 325 325
304 306 307 311 312 310 310 316 322 323 318 318 317 316 316 318 318 318 320 321 322 324 323 322 321 321 320 320 320 320 320 322 322 321 321 320 321 322 323 323 326 326 328 329 329
304 309 313 312 310 310 314 319 321 320 318 315 314 314 315 315 316 316 317 318 319 318 321 322 323 322 322 321 322 321 321 322 323 323 322 322 321 321 323 326 327 325 326 329 330
305 313 314 311 309 311 317 319 320 317 314 313 313 314 315 315 313 315 316 317 316 315 319 320 321 321 322 322 323 323 323 323 326 324 323 322 322 322 327 328 327 326 327 329 330
307 314 316 309 310 313 317 318 317 312 311 312 313 314 314 315 314 314 313 313 312 311 314 317 319 318 320 319 319 322 322 325 324 328 329 324 323 322 327 327 327 328 329 328 329
311 314 312 308 310 317 318 317 314 311 309 312 312 313 313 312 312 311 310 311 309 310 310 313 314 314 314 316 316 318 321 322 323 326 331 328 322 330 328 330 329 328 327 327 328
310 313 310 307 315 312 312 309 306 308 308 308 308 309 310 310 310 310 310 311 308 308 308 310 312 314 312 314 314 315 317 322 326 329 326 326 329 328 328 329 327 325 324 325 326
311 311 309 309 310 309 309 308 308 308 308 308 308 308 309 309 309 309 308 308 306 306 308 310 310 311 311 311 312 311 313 315 319 322 327 329 328 325 325 323 321 320 319 320 322
311 313 309 309 308 308 308 308 308 308 307 307 307 307 308 308 309 309 308 307 306 306 306 305 306 308 309 310 309 310 314 313 314 317 318 320 323 322 324 326 323 320 316 317 319
311 310 308 308 309 307 308 308 307 308 308 308 307 307 308 309 309 309 309 308 307 307 306 307 309 308 307 307 306 306 306 307 307 310 312 313 315 316 317 318 317 313 312 315 318
307 307 307 306 308 308 306 308 308 308 307 308 308 309 309 309 309 309 309 309 310 309 309 307 309 308 307 306 306 305 305 305 305 306 306 307 309 311 311 308 310 309 310 312 316
305 305 305 305 307 307 309 308 306 306 307 307 308 308 308 309 309 309 308 309 309 309 308 308 309 309 310 308 307 308 306 306 306 306 306 307 308 309 309 309 309 309 309 309 310
Wind_Speed
24 25 26 24 21 19 17 12 10 9 8 8 9 9 10 10 10 9 13 8 9 19 10 13 18 19 19 18 21 19 15 19 24 25 22 13 9 12 4 13 8 6 6 9 18
27 28 29 26 22 18 15 12 11 9 9 8 8 9 9 10 12 20 17 14 15 12 14 19 18 19 16 19 17 15 16 24 22 23 20 20 11 15 9 14 7 11 6 1 15
29 31 29 26 23 18 13 12 11 10 9 9 8 7 7 6 14 3 9 5 15 17 18 15 19 18 20 19 21 20 21 20 23 23 22 15 16 10 10 14 14 8 9 8 15
31 33 30 26 22 18 14 11 9 8 8 8 7 6 5 7 4 8 4 1 7 13 17 15 19 20 21 22 20 23 21 21 26 19 15 15 19 22 13 16 5 7 4 8 13
33 34 28 25 21 17 13 9 9 10 9 8 6 5 3 9 7 9 2 4 8 12 18 14 16 20 22 22 21 20 23 22 18 21 20 17 19 23 15 17 20 4 5 12 10
34 35 26 25 21 16 12 10 7 8 10 8 7 6 9 14 4 5 6 6 9 14 16 17 16 15 18 22 21 19 21 20 22 16 18 21 21 20 21 20 18 16 17 11 14
35 34 26 23 18 13 10 8 8 9 10 6 9 9 12 12 1 6 7 8 7 13 15 18 21 14 17 16 21 16 22 18 19 20 21 18 23 26 24 22 20 25 15 17 13
35 33 26 21 17 13 11 9 8 7 4 3 8 8 7 3 4 8 11 9 7 9 14 14 18 13 17 12 9 16 20 20 21 22 20 19 24 24 25 26 26 19 21 17 15
35 34 24 20 16 16 12 8 5 2 1 6 6 11 6 7 9 2 7 9 8 7 8 8 10 14 14 16 16 18 17 24 24 21 23 23 24 21 22 23 27 24 20 25 19
35 35 22 18 15 14 15 9 7 2 1 6 13 8 8 9 4 5 6 7 10 10 9 9 10 14 14 14 16 20 21 20 21 16 17 18 23 21 20 20 23 23 17 17 23
35 35 25 18 13 13 16 7 5 7 14 14 8 8 2 4 7 12 11 15 11 11 14 15 11 16 18 19 21 21 21 22 14 17 17 16 18 21 19 20 16 16 18 22 19
36 36 26 18 18 12 13 7 8 8 10 13 10 8 6 3 8 11 14 14 14 16 17 13 16 17 16 16 17 18 20 23 19 19 14 17 21 20 20 17 18 18 19 18 21
37 37 25 15 11 6 7 6 11 7 7 10 10 10 4 10 7 14 13 17 16 18 18 18 17 16 12 16 16 19 19 20 21 21 22 20 23 23 23 23 22 21 21 20 22
38 38 23 11 7 9 3 11 12 2 6 12 11 6 8 6 9 1 9 14 17 21 19 20 20 20 20 15 17 20 18 18 19 17 17 19 18 22 23 26 25 23 22 20 21
38 35 13 6 11 5 9 12 6 4 6 4 9 5 3 10 3 13 6 10 19 19 16 20 20 22 19 20 17 18 19 19 17 18 20 22 16 20 16 19 16 17 19 22 20
40 30 9 2 9 5 13 7 4 7 8 6 2 3 10 6 4 2 7 8 8 15 19 24 18 21 16 14 17 17 19 22 20 18 17 24 22 21 18 21 22 13 15 13 13
44 21 4 5 10 16 8 8 7 8 4 5 1 2 7 8 7 6 7 11 10 13 19 23 25 24 18 19 18 16 16 13 16 15 19 22 22 21 15 20 5 6 7 8 9
42 12 8 7 17 10 8 9 9 9 4 5 4 9 12 9 12 6 12 12 10 9 16 18 17 19 18 17 21 24 22 16 23 18 20 21 23 20 17 8 2 4 1 4 7
35 8 8 9 15 8 8 10 9 9 6 8 12 14 15 5 6 4 11 11 9 8 10 14 20 12 2 9 10 17 21 21 25 26 21 22 21 18 12 10 8 4 2 5 7
24 13 3 17 12 10 8 14 5 7 9 8 11 4 13 5 1 7 10 7 2 4 8 6 12 21 8 4 15 19 18 15 14 23 26 21 23 18 21 17 11 11 7 4 4
11 7 14 25 10 7 8 7 5 7 9 6 9 11 11 9 10 12 8 6 2 8 8 13 9 18 22 12 17 17 18 20 19 17 15 19 18 11 4 7 12 8 5 4 4
10 5 19 24 9 2 7 6 3 7 6 7 6 9 10 8 8 10 9 4 4 9 11 9 7 14 19 16 5 11 16 21 10 18 20 19 12 12 7 10 3 7 6 6 6
8 4 9 12 4 6 7 8 3 7 6 4 6 2 4 9 5 5 4 5 4 10 7 9 7 12 15 17 18 12 19 16 17 16 18 12 12 10 2 2 2 3 6 9 8
6 4 2 4 4 5 6 3 4 2 8 5 9 5 9 10 9 7 7 6 4 8 6 4 11 15 14 18 9 8 16 13 15 14 20 21 27 23 7 15 18 13 12 10 8
4 3 3 4 6 8 7 9 7 5 3 8 7 6 8 9 12 12 7 6 8 10 9 8 14 16 17 16 16 17 17 17 16 17 20 21 24 15 11 3 16 17 11 11 9
5 4 4 10 5 9 4 0 4 5 6 8 4 7 7 10 11 14 13 9 9 4 13 5 13 14 17 18 18 21 21 20 21 22 22 22 22 20 17 4 15 12 11 8 11
4 2 4 4 5 7 4 5 5 9 8 6 8 7 10 9 10 13 12 13 14 14 12 12 12 13 17 17 18 14 16 20 21 22 19 20 20 17 14 10 9 11 10 10 9
Wind_Direction
3 359 353 346 341 334 329 320 311 306 294 295 294 293 291 291 286 255 244 249 209 247 214 213 218 224 226 231 226 227 252 243 246 252 257 266 248 241 247 268 163 194 255 46 120
1 357 352 346 338 334 327 317 308 300 292 291 287 293 295 294 273 261 250 258 253 228 204 209 208 215 221 226 219 230 230 242 248 258 263 261 248 252 183 225 195 204 173 192 148
359 357 350 344 339 331 325 316 308 296 285 282 278 288 294 296 273 158 148 263 227 212 218 222 224 217 231 226 220 223 244 245 245 260 272 298 298 255 253 227 215 188 131 172 174
358 356 350 345 340 331 323 316 309 302 290 274 268 285 279 260 305 113 164 169 177 186 220 226 220 222 230 236 229 232 245 249 270 277 262 256 273 273 253 258 286 120 156 171 190
359 356 352 346 342 331 319 312 308 302 293 275 253 259 240 228 262 137 142 171 189 206 226 219 224 229 229 239 243 236 250 254 253 263 276 264 253 260 246 255 274 201 209 170 197
360 357 355 347 341 330 318 318 319 312 298 277 226 213 245 258 92 149 165 179 217 214 227 230 235 241 245 246 249 248 248 257 263 249 255 253 256 260 249 257 273 271 247 223 183
359 359 355 352 350 341 325 321 325 322 308 268 200 197 272 260 224 187 202 230 240 227 240 237 238 249 243 265 256 255 265 255 248 258 247 253 255 246 251 251 219 242 259 245 190
360 358 358 359 355 346 329 317 331 330 331 155 183 227 268 139 236 225 230 222 230 219 235 254 234 251 243 274 246 263 249 257 248 237 235 239 253 245 239 245 244 222 252 243 221
359 358 357 359 351 355 340 320 332 1 107 146 191 227 222 153 209 159 206 203 183 197 215 215 240 238 229 244 255 237 246 239 248 248 231 217 247 250 254 236 236 241 215 247 231
359 357 352 355 351 343 344 308 277 195 200 225 265 243 220 202 165 257 199 182 183 174 166 201 210 226 230 232 241 245 228 235 258 260 206 249 256 243 259 246 246 236 230 224 257
358 355 348 342 336 348 325 260 233 197 223 275 307 280 220 237 226 219 183 181 194 207 213 197 216 221 231 232 257 275 284 284 273 244 253 250 252 252 237 252 251 254 233 238 209
356 352 345 333 329 304 308 10 27 321 296 272 251 258 255 260 213 195 184 197 202 213 214 206 228 249 249 247 261 252 261 266 271 265 266 252 252 260 264 253 254 253 248 236 237
354 349 342 327 324 267 329 8 329 302 262 220 214 233 192 219 221 178 206 210 210 223 233 234 232 225 236 256 245 251 252 264 258 260 237 253 259 253 253 253 250 249 250 248 250
352 347 339 324 289 331 253 338 331 269 272 171 199 182 217 215 200 138 228 257 228 241 236 246 236 249 259 240 252 252 245 247 266 267 255 238 255 251 237 238 243 240 240 246 243
349 346 344 335 315 311 340 325 324 230 274 125 136 58 213 230 81 179 205 236 249 253 236 251 255 238 252 258 248 252 264 260 244 249 266 260 264 266 261 245 238 231 237 236 234
346 342 333 253 246 328 320 309 220 235 246 135 146 205 219 200 195 336 222 225 280 262 256 261 261 267 269 253 242 253 256 252 258 261 245 244 250 254 244 238 239 212 251 253 252
342 334 273 315 333 315 301 230 247 243 124 125 192 294 293 266 250 275 249 233 262 243 238 239 234 243 233 249 257 248 239 251 245 235 246 247 245 249 262 266 24 49 19 1 343
340 330 271 271 329 312 264 239 253 288 334 79 274 289 265 356 255 253 266 254 187 306 279 278 267 225 199 221 248 240 235 235 247 252 259 241 233 244 234 122 153 203 14 5 347
343 326 255 334 327 292 256 242 276 16 12 338 304 260 269 187 274 240 252 306 18 350 302 305 267 249 206 271 266 258 257 256 255 272 276 272 267 273 145 160 173 145 30 24 347
333 300 198 337 320 265 246 255 322 32 334 304 287 293 294 292 233 276 293 85 334 345 323 335 287 282 260 238 262 264 276 275 248 253 254 259 262 260 191 188 163 151 143 81 337
311 299 26 345 295 243 255 22 352 32 347 327 318 300 292 300 317 291 287 99 36 317 312 300 270 279 292 258 266 262 239 250 264 261 256 270 257 25 30 100 150 118 91 72 7
323 311 3 347 277 8 2 3 356 330 318 298 305 291 289 304 287 280 281 8 62 323 300 328 308 284 278 283 342 286 279 282 256 255 266 272 250 55 53 117 101 90 47 20 12
320 299 15 351 19 356 5 306 309 330 332 319 288 244 340 289 286 236 297 60 354 309 329 6 255 276 268 238 230 244 257 252 263 278 251 272 243 97 212 97 69 35 19 343 358
307 309 26 87 99 326 337 282 287 172 288 285 285 296 276 264 243 253 270 196 173 281 49 322 271 268 277 303 330 282 299 266 249 263 256 242 258 260 274 327 335 327 343 325 335
329 26 12 309 339 321 284 296 305 306 313 295 279 234 296 299 290 269 312 277 217 189 228 241 278 283 281 292 296 285 277 274 266 264 260 267 271 265 259 41 244 286 309 302 302
317 336 339 285 280 288 239 277 298 323 304 289 249 306 316 275 301 304 321 297 314 330 250 253 264 279 274 269 261 266 264 264 262 261 265 268 268 283 297 210 256 286 306 317 309
3 234 278 285 290 269 18 360 314 314 272 268 319 304 280 353 323 318 303 286 282 284 287 271 266 276 278 283 288 268 265 261 254 254 256 260 267 275 287 254 294 289 300 312 323